Location: Bradford+West+Gwillimbury,+ON,+Canadà
(44.1162°N, 79.5735°W)
Time: 17:14:17
(UTC-04:00)

STARLINK-2616 - Pass Details

Date: 22 June 2021
Orbit: 348 x 351 km, 53.0° (Epoch: 05 August)

Event Time Altitude Azimuth Distance (km) Brightness Sun altitude
Rises 13:52:34 0° 272° (W) 2,153 6.7 68.3°
Enters shadow 14:26:09 -57° 137° (SE) 11,044 9.8 65.3°
Exits shadow 15:02:29 -50° 338° (NNW) 10,236 9.6 60.6°
Maximum altitude 04:49:00 20° 134° (SE) 873 4.7 -7.3°
